map of BBA home
BBA - Airport
Location
City:  Balmaceda, Aysén del General Carlos Ibáñez del Campo, Chile
ICAO:SCBA
IATA:BBA

Details
Type:Airport (Aerodrome, Airfield)
Use:Public/Civil
Latitude:45°54'58"S (-45.916057)
Longitude:71°41'22"W (-71.689474)
Datum:WGS 1984
Elevation:1722 ft (525 m)
Variation:9.71°E (WMM2015v2 magnetic declination)
-0.11° annual change
Runways:1
Longest:8205 × 148 ft (2501 × 45 m), paved

Time
Time Zone:UTC-4 (DST-3)
Local Time:

Weather
METAR:SCBA 041400Z 34004KT 300V070 CAVOK 25/05 Q1014
TAF:SCBA 041010Z 0412/0512 VRB02KT CAVOK TX34/0420Z TN06/0510Z
BECMG 0417/0419 30012KT
BECMG 0501/0503 31007KT
BECMG 0510/0512 31015KT

Related Locations
Nearby:
Farthest:MXW: 12341 mi / 19860 km
Mandalgovi (Mandalgobi) [Mandalgovi Airport], 059, MN

Find:

   beyond  
but within

Other Information
Maps:
NOTAMs:
Links:
Sources:

  
  • flag of Chile
  • flag of Aysén del General Carlos Ibáñez del Campo
  

Sectional Chart

Flight Planning
at skyvector.com

Satellite Image

Google Maps Satellite view

 

Copyright © 2004-2019 Karl L. Swartz. All rights reserved.
The Great Circle Mapper name and logo are trademarks of the Great Circle Mapper.
All other trademarks mentioned herein belong to their respective owners.
Please see credits for attibutions and further copyright information.

  Follow gcmap on Facebook Follow gcmap on Twitter GCmap on LinkedIn

hCard Microformat

Geo Microformat